User: anonymous   Login
Location: Unspecified
(0.0000°N, 0.0000°E)
Time: 10:34:36
(UTC+00:00)
Language:

Explorer 11/Cluster Stage 4 - Orbit

View from above orbital plane
View from above orbital plane
View from above satellite
View from above satellite

Ground track
Ground track

The orbit data is extracted from the following two-line orbital elements,

1   107U 61013A   17113.58775693 +.00000777 +00000-0 +87152-4 0  9990
2   107 028.7870 198.1467 0549426 016.5764 345.2031 14.08284065803813
Epoch (UTC): 23 April 2017 14:06:22
Eccentricity: 0.0549426
inclination: 28.7870°
perigee height: 467 km
apogee height: 1263 km
right ascension of ascending node: 198.1467°
argument of perigee: 16.5764°
revolutions per day: 14.08284065
mean anomaly at epoch: 345.2031°
orbit number at epoch: 80381

The dashed part of the orbit path shows where the satellite is in the earth's shadow,  

DLR